Notices

What's New in latest Release from April 7th, 2021:

- Updated Glossary, including Speed of Maximum Gust, and Total Hourly Precipitation

- Updated national and regional climate services offices contacts and prices information

- Addition of station inventory lists for 1981-2010, 1971-2000, and 1961-1990 Normals.

If you haven't already, please take our survey and provide feedback about our website: https://eccc.sondage-survey.ca/f/LanguageSelection.aspx?s=442ca660-fcf1-47c0-95a9-59707d6fd709

Hourly Data Report for January 18, 2021

EDMUNDSTON
NEW BRUNSWICK
Current Station Operator: ECCC - MSC

47°25'00.000" N
68°19'28.040" W
154.20 m
8101303
71590
ERM

Download Data

Hourly Data (January 2021)
Hourly Data Report for January 18, 2021
TIME
LST
Temp Definition
°C
Dew Point Definition
°C
Rel Hum Definition
%
Precip. Amount Definition
mm

Wind Dir Definition
10's deg

Wind Spd Definition
km/h
Visibility Definition
km
Stn Press Definition
kPa
Hmdx Definition


Wind Chill Definition


Weather Definition


00:00 -1.2 -3.4 85 0.0 25 10   97.02   -5 LegendNANA
01:00 -1.3 -3.7 83 0.0 27 10   97.07   -5 LegendNANA
02:00 -1.3 -3.9 82 0.0 25 13   97.16   -6 LegendNANA
03:00 -1.6 -4.1 83 0.0 25 7   97.24   -4 LegendNANA
04:00 -1.8 -4.5 82 0.0 26 7   97.25   -4 LegendNANA
05:00 -1.9 -4.8 81 0.0 25 10   97.29   -6 LegendNANA
06:00 -2.8 -5.9 79 0.0 25 12   97.34   -7 LegendNANA
07:00 -3.2 -5.9 82 0.0 24 7   97.40   -6 LegendNANA
08:00
09:00 -4.1 -6.8 81 0.0 26 8   97.50   -8 LegendNANA
10:00 -4.4 -7.8 77 0.0 25 12   97.56   -9 LegendNANA
11:00 -4.7 -8.6 74 0.0 25 12   97.61   -9 LegendNANA
12:00 -4.6 -8.4 75 0.0 25 14   97.58   -10 LegendNANA
13:00 -4.6 -8.3 75 0.0 25 13   97.58   -10 LegendNANA
14:00 -4.7 -8.0 78 0.2 28 9   97.57   -9 LegendNANA
15:00 -4.5 -8.6 73 0.0 28 12   97.61   -9 LegendNANA
16:00 -5.0 -8.6 76 0.0 26 10   97.71   -9 LegendNANA
17:00 -5.4 -8.8 77 0.0 28 10   97.81   -10 LegendNANA
18:00 -5.9 -8.8 80 0.0 29 10   97.90   -10 LegendNANA
19:00 -7.7 -11.2 76 0.2 31 13   98.03   -13 LegendNANA
20:00 -9.1 -12.5 77 0.0 31 11   98.13   -15 LegendNANA
21:00 -9.8 -13.2 76 0.0 31 11   98.25   -15 LegendNANA
22:00 -10.3 -13.4 78 0.0 30 7   98.33   -14 LegendNANA
23:00 -10.2 -13.9 74 0.0 31 14   98.39   -17 LegendNANA

Notes on Data Quality.

Legend

  • E = Estimated
  • M = Missing
  • NA = Not Available*
  • [empty] = Indicates an unobserved value
Date modified: